Location: Bogis-Bossey
(46.3500°N, 6.1667°E)
Time: 17:48:28
(UTC+00:00)

CENTAUR R/B - Pass Details

Date: 17 August 2022
Orbit: 710 x 1477 km, 63.4° (Epoch: 22 August)

Event Time Altitude Azimuth Distance (km) Brightness Sun altitude
Rises 21:37:36 0° 320° (NW) 4,078 7.1 -24.5°
Reaches altitude 10° 21:40:18 10° 325° (NW) 3,214 6.3 -24.7°
Maximum altitude 21:48:06 53° 41° (NE) 1,651 3.7 -25.4°
Enters shadow 21:52:28 30° 102° (ESE) 2,333 4.1 -25.8°
